Location: Ammerl�gen
(47.2167°N, 9.6000°E)
Time: 10:43:43
(UTC+00:00)

Thor Agena Rocket - Pass Details

Date: 21 April 2021
Orbit: 759 x 808 km, 99.0° (Epoch: 06 May)

Event Time Altitude Azimuth Distance (km) Brightness Sun altitude
Rises 22:57:59 0° 17° (NNE) 3,252 7.7 -30.4°
Reaches altitude 10° 23:00:19 10° 21° (NNE) 2,327 6.7 -30.4°
Enters shadow 23:04:05 47° 45° (NE) 1,032 4.3 -30.5°
